Regional Weather Roundup
Issued by NWS

Home | Current Version | Previous Version | Graphics & Text | Print | Product List | Glossary On
Versions: 1 2 3 4 5 6 7 8 9 10 11 12 13 14 15 16 17 18 19 20 21 22 23 24 25 26 27
971
ASUS43 KDMX 211107
RWRIA

WEATHER ROUNDUP FOR IOWA
NATIONAL WEATHER SERVICE DES MOINES IA
600 AM CDT THU MAY 21 2015

NOTE: "FAIR" INDICATES FEW OR NO CLOUDS BELOW 12,000 FEET WITH NO
SIGNIFICANT WEATHER AND/OR OBSTRUCTIONS TO VISIBILITY.

* - THESE STATIONS ARE NOT NWS STATIONS...THUS NOT UNDER NWS
QUALITY CONTROL.  THEY ALSO DO NOT REPORT WEATHER SUCH
AS PRECIPITATION OR FOG.

IAZ001>003-012>014-020>022-031>034-043>046-211200-
   NORTHWEST IOWA

CITY           SKY/WX    TMP DP  RH WIND       PRES   REMARKS
CARROLL *      CLEAR     41  39  93 W13       30.19S
CHEROKEE *     CLEAR     37  37 100 SW3       30.19S
DENISON *      CLEAR     39  39 100 SW6       30.20R WCI  35
LE MARS *      CLEAR     43  39  87 CALM      30.21R
ORANGE CITY *  CLEAR     37  36  93 W6        30.18S WCI  33
SHELDON *      CLEAR     39  37  93 W7        30.16F WCI  34
SIOUX CITY     CLEAR     40  35  83 W6        30.22S
SPENCER        CLEAR     42  37  82 W9        30.16S
STORM LAKE *   CLEAR     39  37  93 W15       30.18S WCI  31
$$

IAZ055>058-069>071-079>083-090>094-211200-
   SOUTHWEST IOWA

CITY           SKY/WX    TMP DP  RH WIND       PRES   REMARKS
ATLANTIC *     CLEAR     37  37 100 SW6       30.23S WCI  33
AUDUBON *      CLEAR     39  36  87 W9        30.22S WCI  33
CLARINDA *     CLEAR     39  39 100 S3        30.28R FOG
COUNCIL BLFS * CLEAR     39  39 100 SW5       30.25S
CRESTON *      CLEAR     37  37 100 NW7       30.23S WCI  32
HARLAN  *      CLEAR     37  37 100 S3        30.26S
LAMONI         PTCLDY    43  41  93 W8        30.23R FOG
RED OAK *      CLEAR     39  39 100 CALM      30.26R
SHENANDOAH *   CLEAR     39  39 100 SW5       30.27S
$$

IAZ047>049-059>061-072>074-084-211200-
   CENTRAL IOWA

CITY           SKY/WX    TMP DP  RH WIND       PRES   REMARKS
AMES           CLEAR     39  36  89 W8        30.18F WCI  33
ANKENY *       CLEAR     41  39  93 W7        30.20S
CHARITON *     CLEAR     39  39 100 W7        30.22R FOG     WCI  34
DES MOINES     PTCLDY    41  38  89 W7        30.21S
GRINNELL*      CLEAR     39  37  93 W7        30.19S WCI  34
KNOXVILLE *    CLEAR     39  39 100 W7        30.19S FOG     WCI  34
MARSHALLTOWN   CLEAR     40  37  89 W8        30.17S WCI  34
PELLA *        CLEAR     41  41 100 W5        30.21S
PERRY *          N/A     39  39 100 W9        30.20S WCI  33
$$

IAZ004>006-015-016-023>025-035-036-211200-
   NORTH CENTRAL IOWA

CITY           SKY/WX    TMP DP  RH WIND       PRES   REMARKS
ALGONA *       CLEAR     41  41 100 W12       30.14S
CLARION *      CLEAR     39  39 100 SW7       30.16S WCI  34
ESTHERVILLE    CLEAR     42  36  79 W13       30.13S
FORT DODGE *   CLEAR     39  36  87 SW7       30.17S WCI  34
MASON CITY     CLEAR     43  38  82 W15       30.14S
FOREST CITY *  CLEAR     37  37 100 SW5       30.13S WCI  34
IOWA FALLS *     N/A     41  37  87 W14       30.17S
$$

IAZ007>011-017>019-026>030-037>042-050>054-066-211200-
   NORTHEAST IOWA

CITY           SKY/WX    TMP DP  RH WIND       PRES   REMARKS
CEDAR RAPIDS   CLEAR     36  36 100 W6        30.16S FOG     WCI  31
CHARLES CITY * CLEAR     43  39  87 W10       30.13S
CLINTON *      MOCLDY    39  37  93 W10       30.18R WCI  32
DECORAH *      PTCLDY    41  39  93 VRB5      30.10S
DUBUQUE        CLEAR     40  37  89 W10       30.13S WCI  33
MONTICELLO *   CLEAR     39  39 100 CALM      30.15S
OELWEIN *      PTCLDY    37  37 100 SW6       30.14S WCI  33
WATERLOO       PTCLDY    40  37  89 W7        30.14S
$$

IAZ064-065-067-068-078-211200-
   EAST CENTRAL IOWA

CITY           SKY/WX    TMP DP  RH WIND       PRES   REMARKS
DAVENPORT      CLOUDY    41  38  89 NW8       30.17R
IOWA CITY      CLEAR     37  36  96 W6        30.19S FOG     WCI  32
MT. PLEASANT * CLEAR     41  41 100 W6        30.19S FOG
MUSCATINE *    CLEAR     41  39  93 W7        30.19S
QUAD CITIES    PTCLDY    42  38  85 W8        30.17R
$$

IAZ062-063-075>077-085>089-095>099-211200-
   SOUTHEAST IOWA

CITY           SKY/WX    TMP DP  RH WIND       PRES   REMARKS
BURLINGTON     CLEAR     37  37 100 W3        30.18R FOG
FAIRFIELD *    CLEAR     41  39  93 W7        30.20R FOG
FORT MADISON *   N/A     39  39 100 W5        30.20R FOG
KEOKUK *       PTCLDY    41  41 100 CALM      30.19R FOG
OSKALOOSA *    FOG       39  37  93 W5        30.20S VSB<1/4
CENTERVILLE *  CLOUDY    41  41 100 W10       30.22R FOG
OTTUMWA        FOG       39  38  96 W7        30.20R VSB 1/4 WCI  34
WASHINGTON *   CLEAR     39 N/A N/A W7        30.19S FOG     WCI  34
$$

ABBREVIATIONS USED IN REMARKS
   TC - TEMPERATURES IN CELSIUS
  WCI - WIND CHILL INDEX
   HX - HEAT INDEX
  VSB - VISIBILITY
$$




USA.gov is the U.S. government's official web portal to all federal, state and local government web resources and services.